Location: Chiroubles
(46.1812°N, 4.6660°E)
Time: 05:09:22
(UTC+00:00)

Transit 4A - Pass Details

Date: 06 December 2020
Orbit: 864 x 980 km, 66.8° (Epoch: 25 January)

Event Time Altitude Azimuth Distance (km) Brightness Sun altitude
Rises 10:47:56 0° 315° (NW) 3,691 10.5 20.5°
Reaches altitude 10° 10:52:52 10° 348° (NNW) 2,738 9.8 20.7°
Maximum altitude 10:54:51 11° 6° (N) 2,631 9.8 20.7°
Drops below altitude 10° 10:56:49 10° 25° (NNE) 2,728 9.9 20.8°
Sets 11:01:42 0° 58° (ENE) 3,653 10.8 20.9°
